Location: Unspecified
(0.0000°N, 0.0000°E)
Time: 17:14:18
(UTC+00:00)

Hubble Space Telescope - Pass Details

Date: 19 January 2026
Orbit: 479 x 481 km, 28.5° (Epoch: 19 January)

Event Time Altitude Azimuth Distance (km) Brightness Sun altitude
Exits shadow 05:45:32 - 285° (WNW) 1,870 2.8 -5.9°
Reaches altitude 10° 05:46:08 10° 282° (WNW) 1,638 2.6 -5.7°
Maximum altitude 05:49:44 42° 210° (SSW) 686 1.3 -4.9°
Drops below altitude 10° 05:53:19 10° 138° (SE) 1,640 4.4 -4.1°
Sets 05:55:36 0° 131° (SE) 2,519 5.8 -3.5°
